Main page
METAR-TAF:

METAR-TAF

Airports :

Oil platform

Goeree Le, Netherlands

latitude: 51-55-33N, longitude: 3-40-12E, elevation: 19 m

Current weather observation

The report was made 41 minutes ago, at 13:25 UTC
Wind 10 kt from the West/Southwest
Temperature 14°C
Humidity 72%
Pressure 1031 hPa
Visibility 10 km or more

METAR: EHSC 201325Z AUTO 24010KT 9999 ///////// 14/09 Q1031 W16/H4

Time: 16:06 (14:06 UTC)


TAF: missing

Weather observations and forecasts of more than 4000 airports (METAR and TAF reports).

The available stations are represented by yellow and red dots on the map.

Hover mouse over dot to see the name of the station.

Then click to see weather observations and forecasts.

To change the map : click on the green buttons with a black cross to zoom in, on the green button with a dash to zoom out, or on the green arrows for adjacent maps.


METAR-TAF: